Weather in Kal'tovka

Russia / Republic of Bashkortostan     54°40′47″N   56°36′58″E
temp.,
°C
wind,
m/s
gust,
m/s
humid.,
%
clouds,
%
prec.,
mm/h
press.,
hPa
HPBL,
m
28 september, tue
tue2823:00+4ene81571100 1.4 10171169
02:00+4ene7126787 0.0 1018984
05:00+3ne8137399 0.0 1019731
08:00+3ne8136943 0.0 1020935
11:00+6ene9115455 0.0 10201309
14:00+7ne9104878 0.0 10211684
17:00+7ne7104938 0.0 10221693
20:00+4nne510675 0.0 1023273
29 september, wed
wed2923:00+2nne410785 0.0 1024227
02:000nne49835 0.0 1025206
05:00−1nne49915 0.0 1026188
08:00−1nne49905 0.0 1027209
11:00+5ne57615 0.0 1027835
14:00+7ne4548100 0.1 10271585
17:00+8nne454736 0.1 10271456
20:00+3nne36665 0.0 102894
30 september, thu
thu3023:00+1ne34765 0.0 102960
02:000nne22775 0.0 102919
05:00−1nne22815 0.0 103013
08:00−1n117840 0.0 103010
11:00+5nw235444 0.0 1030485
14:00+8nw34435 0.0 10291445
17:00+9nw454346 0.0 10281558
20:00+4wnw336435 0.0 102837
1 october, fri
fri123:00+5wnw246595 0.0 1029100
02:00+5sw3468100 0.0 102897
05:00+5sw4772100 0.0 1028233
08:00+5sw3683100 0.2 1028291
11:00+6sw3584100 0.3 1027342
14:00+7ssw1284100 0.0 1027324
17:00+6sse2286100 0.1 1028102
20:00+5sse22907 0.0 102935
2 october, sat
sat223:00+5ssw2288100 0.0 102951
02:00+6ssw2386100 0.0 102975
05:00+6ssw2285100 0.0 102948
08:00+6ssw1283100 0.0 103029
11:00+7ssw1173100 0.0 1031137
14:00+9sw1268100 0.0 1031382
17:00+10w2268100 0.0 1031538
20:00+8ssw1176100 0.0 103210